FW6635 Weather Reports


time (UTC)temp
C
wind
direction
speed
KPH
gust
KPH
rain 1hr
cm
rain 24hr
cm
rain mn
cm
humidity
%
barometer
mb
20260906100058 21 0 0.0 1.6 0.00 0.99 0.03 97 1013.0
20260906094605 21 0 0.0 4.8 0.00 0.99 0.03 97 1012.8
20260906093102 21 0 0.0 3.2 0.00 0.99 0.03 97 1012.7
20260906091556 21 0 0.0 1.6 0.00 0.99 0.03 97 1012.7
20260906090058 21 0 0.0 3.2 0.00 0.99 0.03 97 1012.5
20260906084602 21 0 0.0 3.2 0.00 0.99 0.03 97 1012.6
20260906083103 21 0 0.0 0.0 0.00 0.99 0.03 97 1012.4
20260906081558 21 0 0.0 0.0 0.00 0.99 0.03 97 1012.3
20260906080058 21 0 0.0 0.0 0.00 0.99 0.03 97 1012.2
20260906074557 21 0 0.0 0.0 0.00 0.99 0.03 97 1012.4
20260906073057 21 0 0.0 0.0 0.00 0.99 0.03 97 1012.5
20260906071557 21 0 0.0 0.0 0.00 0.99 0.03 97 1012.4
20260906070059 21 0 0.0 0.0 0.00 0.99 0.03 97 1012.3
20260906064556 21 0 0.0 0.0 0.00 0.99 0.03 97 1012.4
20260906063059 21 0 0.0 0.0 0.00 0.99 0.03 97 1012.6
20260906061602 21 0 0.0 0.0 0.00 0.99 0.03 97 1012.6
20260906060135 21 0 0.0 0.0 0.00 0.99 0.03 97 1012.9
20260906054608 22 360 0.0 8.0 0.00 0.99 0.03 97 1013.0
20260906053058 22 0 0.0 0.0 0.00 0.99 0.03 97 1013.1
20260906051600 22 0 0.0 0.0 0.03 0.99 0.03 96 1013.2
20260906050057 22 0 0.0 0.0 0.03 0.99 0.03 96 1013.2
20260906044600 22 0 0.0 0.0 0.03 0.99 0.03 97 1013.3
20260906043057 22 0 0.0 0.0 0.03 0.99 0.03 96 1013.3
20260906041559 22 0 0.0 0.0 0.00 0.97 0.00 96 1013.4
20260906034606 22 0 0.0 3.2 0.00 0.97 0.97 96 1013.4
20260906033102 22 0 0.0 0.0 0.00 0.97 0.97 96 1013.6
20260906031602 22 0 0.0 0.0 0.00 0.97 0.97 96 1013.7
20260906030057 22 0 0.0 0.0 0.00 0.97 0.97 96 1013.7
20260906024603 22 0 0.0 0.0 0.00 0.97 0.97 96 1014.1
20260906023100 22 250 1.6 4.8 0.00 0.97 0.97 96 1014.1
20260906021601 22 0 1.6 8.0 0.00 0.97 0.97 96 1014.0
20260906020104 22 0 0.0 0.0 0.00 0.97 0.97 96 1013.8
20260906014559 22 0 0.0 0.0 0.00 0.97 0.97 96 1013.5
20260906013101 22 0 0.0 0.0 0.00 0.97 0.97 95 1013.1
20260906011600 22 0 0.0 0.0 0.00 0.97 0.97 95 1013.0
20260906010146 22 0 0.0 4.8 0.00 0.97 0.97 95 1013.0
20260906004616 22 191 1.6 4.8 0.00 0.97 0.97 95 1012.5
20260906003059 22 191 3.2 8.0 0.00 0.97 0.97 95 1012.7
20260906001607 22 0 0.0 6.4 0.03 0.97 0.97 94 1012.7
20260905234601 22 29 1.6 11.3 0.97 0.97 0.97 93 1012.5
20260905233058 22 96 4.8 16.1 0.97 0.97 0.97 91 1013.0
20260905231556 23 121 8.0 24.1 0.94 0.94 0.94 90 1013.9
20260905224559 28 59 11.3 33.8 0.00 0.00 0.00 67 1014.4
20260905223101 33 34 14.5 33.8 0.00 0.00 0.00 53 1013.4
20260905221559 36 0 1.6 6.4 0.00 0.00 0.00 56 1011.6
20260905214554 37 165 1.6 8.0 0.00 0.00 0.00 50 1011.3
20260905213103 37 159 1.6 8.0 0.00 0.00 0.00 47 1011.2
20260905211609 37 156 3.2 12.9 0.00 0.00 0.00 49 1011.2
20260905210116 37 147 0.0 9.7 0.00 0.00 0.00 49 1011.3
20260905204600 37 178 4.8 9.7 0.00 0.00 0.00 47 1011.5
20260905203102 37 205 4.8 9.7 0.00 0.00 0.00 47 1011.4
20260905201557 37 192 3.2 11.3 0.00 0.00 0.00 53 1011.5
20260905200122 37 163 1.6 12.9 0.00 0.00 0.00 51 1011.6
20260905194602 37 309 3.2 12.9 0.00 0.00 0.00 49 1011.8
20260905193108 37 134 0.0 9.7 0.00 0.00 0.00 52 1011.9
20260905191603 37 189 3.2 9.7 0.00 0.00 0.00 49 1012.2
20260905190106 36 192 4.8 14.5 0.00 0.00 0.00 51 1012.5
20260905184625 36 187 6.4 11.3 0.00 0.00 0.00 53 1012.8
20260905183058 36 145 4.8 12.9 0.00 0.00 0.00 53 1013.1
20260905181604 36 213 1.6 11.3 0.00 0.00 0.00 54 1013.2
20260905180056 36 198 6.4 12.9 0.00 0.00 0.00 56 1013.5
20260905174610 35 270 1.6 12.9 0.00 0.00 0.00 54 1013.7
20260905173102 35 169 1.6 6.4 0.00 0.00 0.00 58 1013.8
20260905171557 35 331 3.2 8.0 0.00 0.00 0.00 58 1013.9
20260905170107 35 0 1.6 9.7 0.00 0.00 0.00 59 1014.1
20260905164600 33 0 4.8 9.7 0.00 0.00 0.00 64 1014.4
20260905163102 33 224 4.8 11.3 0.00 0.00 0.00 64 1014.8
20260905161558 33 280 4.8 11.3 0.00 0.00 0.00 67 1015.1
20260905154605 31 275 3.2 12.9 0.00 0.00 0.00 71 1015.6
20260905153103 31 272 1.6 12.9 0.00 0.00 0.00 74 1015.5
20260905151638 30 301 3.2 12.9 0.00 0.00 0.00 76 1015.7
20260905144559 29 275 3.2 11.3 0.00 0.00 0.00 80 1016.1
20260905143101 28 263 4.8 12.9 0.00 0.00 0.00 81 1016.0
20260905141558 28 240 1.6 12.9 0.00 0.00 0.00 84 1016.1
20260905140104 27 235 3.2 12.9 0.00 0.00 0.00 86 1016.4
20260905134559 27 290 4.8 12.9 0.00 0.00 0.00 89 1016.3
20260905133057 26 258 4.8 14.5 0.00 0.00 0.00 91 1016.3
20260905131607 25 261 1.6 9.7 0.00 0.00 0.00 94 1016.4
20260905124601 25 268 1.6 9.7 0.00 0.00 0.00 96 1016.4
20260905123112 24 269 1.6 6.4 0.00 0.00 0.00 96 1016.4
20260905121556 24 271 1.6 6.4 0.00 0.00 0.00 96 1016.2
20260905114600 24 0 0.0 0.0 0.00 0.00 0.00 96 1016.0
20260905113112 23 0 0.0 6.4 0.00 0.00 0.00 96 1015.8
20260905111600 23 269 0.0 4.8 0.00 0.00 0.00 96 1015.7
20260905110055 24 263 1.6 11.3 0.00 0.00 0.00 96 1015.7
20260905104608 24 281 3.2 6.4 0.00 0.00 0.00 96 1015.7
20260905103104 24 0 0.0 6.4 0.00 0.00 0.00 96 1015.6
20260905101604 24 279 1.6 6.4 0.00 0.00 0.00 96 1015.6